Theta_e
296 295 293 291 288 290 285 283 285 287 292 298 305 308 313 319 325 327 332 333 333 330 333 334 334 335 337 338 339 340 341 342
294 295 294 291 291 287 287 282 281 286 289 291 296 300 312 318 321 323 331 331 333 332 331 334 335 335 338 340 339 340 341 342
290 287 285 287 285 284 285 284 282 282 288 298 297 305 313 316 320 325 325 331 331 334 331 334 336 335 336 339 340 340 341 342
283 290 291 288 285 282 284 282 282 284 286 304 311 313 314 316 320 324 328 329 332 334 333 333 334 335 336 338 340 340 341 342
280 285 288 287 287 283 281 281 280 284 286 304 308 311 311 314 319 321 323 326 329 332 333 335 336 336 336 338 340 341 341 341
279 281 284 285 289 288 282 281 281 282 286 296 303 307 307 310 316 317 319 322 323 325 328 332 335 337 338 337 339 342 341 341
286 289 289 288 288 289 285 285 282 285 289 295 301 306 306 309 311 314 316 318 320 322 325 328 332 336 337 338 339 340 341 342
284 289 288 287 289 290 289 290 288 289 291 299 303 305 304 304 307 309 313 316 318 321 323 325 329 333 337 338 339 341 340 341
278 285 285 282 286 288 292 295 293 288 293 298 297 302 300 300 302 303 306 312 316 318 320 323 326 330 331 335 340 340 342 342
279 280 275 282 290 292 294 295 296 295 296 297 297 299 302 301 300 300 302 305 310 317 319 321 326 326 327 337 341 340 340 342
278 276 281 287 292 292 290 290 296 295 296 297 297 299 301 301 301 301 302 304 307 313 319 321 322 324 325 332 333 335 335 338
278 277 276 284 293 296 295 284 296 296 294 294 294 291 299 299 300 301 302 303 306 308 316 319 320 323 322 327 328 327 330 332
279 276 282 291 294 296 283 284 294 295 294 293 291 293 296 299 299 301 302 303 306 308 312 317 320 321 319 322 322 324 328 331
280 277 277 294 293 288 290 292 294 293 294 293 294 295 297 297 297 299 300 302 306 306 308 315 320 320 318 318 322 322 324 326
282 282 290 293 291 293 294 292 293 292 294 294 294 294 296 296 297 298 299 302 305 305 307 312 317 319 316 318 319 317 319 322
283 284 288 292 293 294 294 293 295 295 295 295 294 296 296 296 296 297 299 301 303 303 305 309 315 318 316 317 316 314 315 317
282 285 287 290 293 294 294 296 296 296 297 297 297 297 298 297 297 298 300 301 303 303 304 308 315 315 313 313 311 309 311 313
282 287 287 287 293 295 294 294 296 297 297 298 299 298 299 298 300 301 300 302 302 303 305 307 313 313 310 310 308 307 307 310
287 289 290 292 294 295 294 295 299 299 299 297 298 299 299 299 301 301 302 304 306 306 307 309 311 308 307 306 305 305 305 308
Wind_Speed
4 5 2 4 5 3 9 2 4 2 4 6 18 19 21 18 2 5 9 13 13 11 15 15 16 17 18 17 16 13 14 11
6 5 7 8 1 4 4 4 2 3 4 4 17 20 20 19 16 11 7 7 10 9 15 14 15 16 17 17 18 16 16 13
6 9 6 7 6 6 6 3 7 4 2 7 7 11 17 18 17 16 9 9 8 6 10 14 13 13 15 14 15 13 12 11
2 5 4 5 3 3 5 4 2 4 2 6 10 13 16 17 18 20 18 6 5 5 6 6 7 9 10 11 12 13 13 13
4 6 6 7 5 4 4 3 1 5 4 8 11 13 16 17 17 18 20 18 14 11 5 5 5 5 7 9 9 10 7 10
7 5 3 4 4 4 5 4 4 1 3 6 12 15 16 17 16 16 16 16 14 14 12 9 6 3 4 8 7 8 10 11
5 5 4 3 3 1 1 3 4 6 2 3 6 9 10 11 15 17 17 17 15 14 12 11 10 8 7 5 12 11 13 13
3 3 2 4 6 6 4 3 3 6 3 3 3 4 9 11 13 15 16 16 15 14 14 13 11 9 9 8 6 10 14 16
3 2 2 3 1 3 2 3 2 1 0 4 4 6 6 7 9 11 13 14 15 13 12 12 12 12 11 11 7 5 9 11
3 2 4 4 3 5 4 1 1 4 2 3 3 5 0 4 7 10 12 13 13 12 12 12 11 12 13 11 3 1 3 7
4 2 3 1 2 2 4 6 2 2 3 5 11 5 5 3 8 8 9 11 10 11 11 10 10 12 13 11 10 8 7 7
2 3 4 5 3 3 1 5 4 4 4 4 10 3 2 8 13 10 12 11 12 13 12 10 10 8 10 9 7 6 8 8
3 2 5 2 4 2 4 2 1 2 1 0 2 5 13 13 13 11 9 13 14 12 11 11 9 7 7 7 7 8 8 10
3 3 7 1 1 4 2 1 3 2 2 5 6 9 12 17 15 11 15 13 11 13 12 11 8 7 8 7 6 9 8 7
7 5 2 1 2 1 2 3 3 3 4 7 10 10 12 14 16 15 15 14 11 9 15 15 10 5 7 7 7 7 9 8
3 2 5 5 2 3 4 3 3 4 6 7 11 12 15 15 15 15 14 12 14 14 11 15 13 8 4 5 6 9 9 9
5 7 3 5 6 5 5 3 5 5 9 12 11 12 13 14 15 14 14 13 12 15 14 14 14 9 5 3 5 7 8 8
7 8 6 4 6 6 4 4 5 6 11 11 10 11 12 13 14 14 13 14 13 15 16 16 14 8 5 4 4 5 8 7
5 6 7 4 5 5 4 6 5 4 7 10 11 10 12 12 13 17 15 14 13 16 16 15 7 7 4 5 7 9 7 7
Wind_Direction
60 25 49 170 76 169 107 19 88 245 324 328 353 2 2 11 33 232 207 197 190 175 187 187 188 190 191 192 197 189 195 193
304 25 23 93 94 71 10 125 146 347 66 311 342 344 350 0 354 324 234 186 187 179 185 192 194 191 193 196 196 193 194 192
35 14 303 9 16 30 108 104 151 140 282 10 333 351 353 358 355 342 270 201 196 200 187 190 192 193 197 196 198 194 194 208
71 290 34 67 68 101 118 212 55 121 215 16 15 15 11 8 12 12 23 35 96 113 146 168 169 180 184 197 201 204 197 192
11 333 1 52 341 92 105 79 27 127 226 45 14 18 11 14 21 23 25 25 30 35 54 105 125 173 170 184 197 198 179 198
164 142 149 71 359 24 95 88 154 201 268 6 19 14 4 7 18 30 30 22 23 22 18 16 10 338 194 185 181 181 189 198
65 86 91 143 161 342 352 165 145 204 301 60 22 26 7 1 13 23 22 21 17 12 9 5 9 6 349 257 196 191 198 198
75 63 118 201 225 205 249 299 212 159 239 55 328 50 22 10 7 12 11 12 9 7 2 0 348 338 335 328 299 216 205 207
161 359 90 32 235 169 126 59 80 214 125 359 6 34 28 7 12 2 354 353 358 358 352 344 341 336 324 311 296 287 230 212
163 1 189 252 247 228 155 125 145 120 114 328 321 294 280 21 14 355 344 343 340 341 342 337 328 337 329 326 322 9 290 260
124 148 296 307 346 149 174 243 207 134 51 353 330 297 208 67 16 337 329 323 320 324 322 325 331 334 333 336 15 15 10 353
131 126 189 221 220 332 192 269 55 70 73 24 343 340 228 351 340 327 324 320 319 321 316 321 327 329 332 329 342 343 330 328
155 164 288 132 279 282 151 246 32 42 329 106 238 241 294 313 314 309 305 310 315 314 310 308 312 318 321 317 313 324 312 307
122 110 260 226 178 186 176 270 303 313 252 283 262 274 283 301 305 306 312 313 315 313 305 302 300 307 310 311 314 311 316 310
180 212 206 163 190 221 176 190 259 272 280 276 283 278 281 288 296 300 301 296 305 297 301 299 293 270 295 304 317 313 301 299
49 239 208 193 224 201 182 218 248 265 277 274 276 277 287 289 289 292 294 294 299 300 285 286 294 276 251 295 312 314 312 311
258 272 251 242 195 179 191 214 261 279 310 310 300 292 288 285 283 280 282 285 279 286 286 275 277 275 293 295 321 309 302 301
216 204 155 207 191 180 197 239 261 298 316 319 306 293 292 287 280 275 275 278 275 272 278 282 266 247 283 308 319 301 302 296
202 180 180 139 168 182 209 244 255 277 302 312 313 302 297 306 293 275 278 284 285 278 271 275 265 284 295 317 321 306 283 271